Location: Unspecified
(41.1637°N, 24.2901°E)
Time: 21:46:27
(UTC+02:00)

ISS - Pass Details

Date: 26 May 2023
Orbit: 411 x 419 km, 51.6° (Epoch: 06 June)

Event Time Altitude Azimuth Distance (km) Brightness Sun altitude
Rises 22:50:02 0° 298° (WNW) 2,358 0.8 -24.2°
Reaches altitude 10° 22:52:15 10° 288° (WNW) 1,493 -0.5 -24.4°
Enters shadow 22:53:21 18° 277° (W) 1,113 -1.3 -24.5°
